Melicucco

Bella gara tra Melicucco e San Giorgio 2-2 [FOTO]

Sul rettangolo del "Fortunato Redi" bagnato dalla pioggia, il Melicucco pareggia contro il San Giorgio in una gara ben giocata da entrambi le contendenti. Dopo un paio di conclusioni di Fabio Mercuri e Macrì senza...

Il Melicucco cade in casa contro l’Ardore [FOTO]

Sul rettangolo del “Fortunato Redi” i locali del Melicucco cedono l’intera posta in palio all’Ardore, capace di rifilare un poker di reti ai biancorossi. Una prima parte di gara con le due squadre che non...

Melicucco, nuovo centrocampista argentino

Si infoltisce ancora di più la colonia di argentini presenti nei nostri campionati dilettantistici. Infatti il Melicucco calcio inserisce nella propria rosa il centrocampista Nicolas Lescano, che ha già esordito la scorsa settimana nella...

Archi – Melicucco decisa dalla rete di Battaglia

Nel campionato di Promozione vittoria di misura dell’Archi sul Melicucco, con la squadra del tecnico Verbaro che ritorna così alla vittoria che mancava dal 20 novembre. Iniziano bene i locali che si fanno pericolosi con...
video

Duro comunicato da parte del Melicucco Calcio

Riceviamo e pubblichiamo in maniera integrale, un duro comunicato della società Melicucco Calcio, riguardante la direzione di gara giocata domenica scorsa contro la Palmese e non solo. «Domenica abbiamo subito una sconfitta in casa contro...

Palmese, immediato riscatto in casa del Melicucco [FOTO]

In una domenica di puro stampo invernale la Palmese torna a vedere un po' di luce imponendosi in casa del Melicucco 1-3. La prima occasione da annotare sul taccuino è di marca neroverde con Artuso...

Attendendo Melicucco – Palmese

Dopo il pesantissimo scivolone casalingo contro la Vigor Lamezia per la Palmese l’avversario della 14a giornata è il Melicucco caduto in casa di una Deliese che ha ribaltato l’esito dell’incontro sospinto dalla verve realizzativa...

La Deliese batte tra le mura amiche il Melicucco 2-1 [FOTO]

Una bella gara si è disputata oggi al comunale di Delianuova tra Deliese e Melicucco. Nel primo tempo parte forte subito la Deliese, al 23' Corrao a tu per tu con Romeo calcia e colpisce...

Melicucco-Cinquefrondese pareggiano 0-0 [FOTO]

Sull’erba del Fortunato Redi bagnata dalla pioggia, termina a reti bianche il derby tra Melicucco e Cinquefrondese. Iniziano bene i locali che al minuto 12 imbastiscono un’azione corale che si sviluppa sulla destra, lancio sulla...

Derby Melicucco-Cinquefrondese: i due mister a confronto

Manca ormai poco al derby della piana tra Melicucco e Cinquefrondese, in programma domenica 27 novembre al Fortunato Redi. I due tecnici, Claudio Tuoto e Santo Logozzo, si apprestano a definire i dettagli finali...

Bella vittoria del Melicucco sullo Sporting Catanzaro [FOTO]

Decima giornata del campionato di Promozione, sull'erba del "Fortunato Redi" si è giocata la gara tra il Melicucco e lo Sporting Catanzaro Lido, con vittoria finale dei biancorossi per 1-0. I minuti iniziali vedono le...

Un buon Capo Vaticano sconfigge il Melicucco per 4-1

Sul rettangolo di gioco di Spilinga si è giocata per la IX giornata del campionato di Promozione, Capo Vaticano vs Melicucco terminata con il risultato di 4-1. La cronaca della gara vede al 1' occasione...
DataCasaRisultatiTrasfertaOra
2023-04-30 15:30:0030/04/23- 15:30:0015:30
2023-04-16 15:30:0016/04/23- 15:30:0015:30
2023-04-02 15:30:0002/04/23- 15:30:0015:30
2023-03-25 15:00:0025/03/23- 15:00:0015:00
2023-03-19 14:30:0019/03/23- 14:30:0014:30
2023-03-11 14:30:0011/03/23- 14:30:0014:30
2023-03-05 14:30:0005/03/23- 14:30:0014:30
2023-02-25 15:00:0025/02/23- 15:00:0015:00
2023-02-19 15:00:0019/02/23- 15:00:0015:00
2023-02-11 15:00:0011/02/23- 15:00:0015:00
2023-02-05 15:00:0005/02/23- 15:00:0015:00
2023-01-29 14:30:0029/01/23- 14:30:0014:30
2023-01-22 14:30:0022/01/232 - 2 14:30:0014:30
2023-01-15 14:30:0015/01/231 - 4 14:30:0014:30
2023-01-08 14:30:0008/01/233 - 0 14:30:0014:30
2022-12-18 14:30:0018/12/221 - 0 14:30:0014:30
2022-12-11 14:30:0011/12/221 - 3 14:30:0014:30
2022-12-04 14:30:0004/12/222 - 1 14:30:0014:30
2022-11-27 14:30:0027/11/220 - 0 14:30:0014:30
2022-11-19 14:30:0019/11/220 - 0 14:30:0014:30
2022-11-13 14:30:0013/11/221 - 0 14:30:0014:30
2022-11-06 14:30:0006/11/224 - 1 14:30:0014:30
2022-10-30 14:30:0030/10/223 - 1 14:30:0014:30
2022-10-23 15:30:0023/10/222 - 2 15:30:0015:30
2022-10-16 15:30:0016/10/222 - 1 15:30:0015:30
2022-10-09 15:30:0009/10/221 - 1 15:30:0015:30
2022-10-02 15:30:0002/10/221 - 2 15:30:0015:30
2022-09-24 15:30:0024/09/224 - 0 15:30:0015:30
2022-09-17 15:30:0017/09/222 - 0 15:30:0015:30
2022-09-11 15:30:0011/09/221 - 2 15:30:0015:30
2022-05-01 14:30:0001/05/223 - 2 14:30:0014:30
2022-04-24 14:30:0024/04/221 - 1 14:30:0014:30
2022-04-10 14:30:0010/04/222 - 1 14:30:0014:30
2022-04-03 14:30:0003/04/222 - 1 14:30:0014:30
2022-03-27 14:30:0027/03/220 - 0 14:30:0014:30
2022-03-20 14:30:0020/03/222 - 1 14:30:0014:30
2022-03-13 14:30:0013/03/224 - 1 14:30:0014:30
2022-03-06 14:30:0006/03/222 - 0 14:30:0014:30
2022-03-02 14:30:0002/03/222 - 0 14:30:0014:30
2022-02-27 14:30:0027/02/220 - 3 14:30:0014:30
2022-02-20 14:30:0020/02/220 - 0 14:30:0014:30
2022-02-13 14:30:0013/02/220 - 2 14:30:0014:30
2022-02-06 14:30:0006/02/223 - 0 14:30:0014:30
2022-01-30 14:30:0030/01/222 - 1 14:30:0014:30
2022-01-23 14:30:0023/01/223 - 0 14:30:0014:30
2022-01-05 14:30:0005/01/220 - 2 14:30:0014:30
2021-12-19 14:30:0019/12/211 - 0 14:30:0014:30
2021-12-12 14:30:0012/12/211 - 0 14:30:0014:30
2021-12-05 14:30:0005/12/210 - 1 14:30:0014:30
2021-11-28 14:30:0028/11/213 - 0 14:30:0014:30
2021-11-21 14:30:0021/11/212 - 1 14:30:0014:30
2021-11-14 14:30:0014/11/210 - 0 14:30:0014:30
2021-11-07 14:30:0007/11/210 - 3 14:30:0014:30
2021-10-31 14:30:0031/10/210 - 0 14:30:0014:30
2021-10-24 14:30:0024/10/210 - 0 14:30:0014:30
2021-10-17 14:30:0017/10/211 - 0 14:30:0014:30
2021-10-10 14:30:0010/10/213 - 2 14:30:0014:30
2021-10-02 15:30:0002/10/212 - 1 15:30:0015:30
2021-09-26 15:30:0026/09/212 - 1 15:30:0015:30
2021-09-19 15:30:0019/09/213 - 2 15:30:0015:30
2021-01-17 15:00:0017/01/21- 15:00:0015:00
2021-01-09 15:00:0009/01/21- 15:00:0015:00
2021-01-06 15:00:0006/01/21- 15:00:0015:00
2020-12-20 15:00:0020/12/20- 15:00:0015:00
2020-12-13 15:00:0013/12/20- 15:00:0015:00
2020-12-06 15:00:0006/12/20- 15:00:0015:00
2020-11-28 15:00:0028/11/20- 15:00:0015:00
2020-11-25 15:00:0025/11/20- 15:00:0015:00
2020-11-22 15:00:0022/11/20- 15:00:0015:00
2020-11-15 15:00:0015/11/20- 15:00:0015:00
2020-11-08 15:00:0008/11/20- 15:00:0015:00
2020-10-31 15:00:0031/10/20- 15:00:0015:00
2020-10-25 15:00:0025/10/201 - 2 15:00:0015:00
2020-10-21 15:00:0021/10/203 - 0 15:00:0015:00
2020-10-18 15:00:0018/10/203 - 1 15:00:0015:00
2020-10-11 15:00:0011/10/201 - 0 15:00:0015:00
2020-10-04 15:00:0004/10/201 - 1 15:00:0015:00
2020-09-27 15:00:0027/09/200 - 0 15:00:0015:00
2020-04-19 15:30:0019/04/20- 15:30:0015:30
2020-04-05 15:30:0005/04/20- 15:30:0015:30
2020-03-29 15:30:0029/03/20- 15:30:0015:30
2020-03-22 14:30:0022/03/20- 14:30:0014:30
2020-03-15 14:30:0015/03/20- 14:30:0014:30
2020-03-08 14:30:0008/03/20- 14:30:0014:30
2020-03-01 14:30:0001/03/202 - 0 14:30:0014:30
2020-02-23 14:30:0023/02/202 - 0 14:30:0014:30
2020-02-16 14:30:0016/02/201 - 1 14:30:0014:30
2020-02-09 14:30:0009/02/200 - 0 14:30:0014:30
2020-02-02 14:30:0002/02/200 - 0 14:30:0014:30
2020-01-26 14:30:0026/01/201 - 2 14:30:0014:30
2020-01-18 14:30:0018/01/201 - 0 14:30:0014:30
2020-01-12 14:30:0012/01/200 - 0 14:30:0014:30
2020-01-04 14:30:0004/01/202 - 0 14:30:0014:30
2019-12-15 14:30:0015/12/192 - 0 14:30:0014:30
2019-12-08 14:30:0008/12/191 - 1 14:30:0014:30
2019-12-01 14:30:0001/12/190 - 0 14:30:0014:30
2019-11-24 14:30:0024/11/191 - 0 14:30:0014:30
2019-11-17 14:30:0017/11/190 - 0 14:30:0014:30
2019-11-09 14:30:0009/11/193 - 1 14:30:0014:30
2019-11-03 14:30:0003/11/191 - 0 14:30:0014:30
2019-10-26 14:30:0026/10/190 - 2 14:30:0014:30
2019-10-20 15:30:0020/10/192 - 1 15:30:0015:30
2019-10-13 15:30:0013/10/193 - 1 15:30:0015:30
2019-10-06 15:30:0006/10/190 - 2 15:30:0015:30
2019-09-28 15:30:0028/09/190 - 1 15:30:0015:30
2019-09-22 15:30:0022/09/193 - 0 15:30:0015:30
2019-09-14 15:30:0014/09/192 - 0 15:30:0015:30
2019-09-07 15:30:0007/09/190 - 1 15:30:0015:30
2019-05-05 16:00:0005/05/195 - 1 16:00:0016:00
2019-04-28 16:00:0028/04/190 - 1 16:00:0016:00
2019-04-14 16:00:0014/04/191 - 0 16:00:0016:00
2019-04-06 16:00:0006/04/191 - 2 16:00:0016:00
2019-03-31 16:00:0031/03/191 - 0 16:00:0016:00
2019-03-24 17:30:0024/03/191 - 2 17:30:0017:30
2019-03-17 15:00:0017/03/193 - 0 15:00:0015:00
2019-03-10 15:00:0010/03/190 - 3 15:00:0015:00
2019-03-03 15:00:0003/03/193 - 2 15:00:0015:00
2019-02-23 14:30:0023/02/190 - 1 14:30:0014:30
2019-02-17 14:30:0017/02/192 - 1 14:30:0014:30
2019-02-03 17:30:0003/02/190 - 5 17:30:0017:30
2019-01-27 14:30:0027/01/191 - 1 14:30:0014:30
2019-01-20 14:30:0020/01/194 - 0 14:30:0014:30
2019-01-13 14:30:0013/01/190 - 1 14:30:0014:30
2018-12-16 14:30:0016/12/183 - 0 14:30:0014:30
2018-12-08 14:30:0008/12/181 - 1 14:30:0014:30
2018-12-02 14:30:0002/12/181 - 0 14:30:0014:30
2018-11-24 14:30:0024/11/180 - 1 14:30:0014:30
2018-11-18 14:30:0018/11/181 - 1 14:30:0014:30
2018-11-10 14:30:0010/11/182 - 1 14:30:0014:30
2018-11-04 14:30:0004/11/182 - 0 14:30:0014:30
2018-10-28 14:30:0028/10/182 - 2 14:30:0014:30
2018-10-14 15:30:0014/10/184 - 1 15:30:0015:30
2018-05-20 16:00:0020/05/1810 - 2 16:00:0016:00
2018-05-13 16:00:0013/05/182 - 4 16:00:0016:00
2018-05-06 16:00:0006/05/189 - 3 16:00:0016:00
2018-04-29 16:00:0029/04/180 - 7 16:00:0016:00
2018-04-22 16:00:0022/04/183 - 2 16:00:0016:00
2018-04-14 16:00:0014/04/180 - 7 16:00:0016:00
2018-04-08 16:00:0008/04/182 - 1 16:00:0016:00
2018-03-25 16:00:0025/03/180 - 1 16:00:0016:00
2018-03-18 15:00:0018/03/184 - 0 15:00:0015:00
2018-03-11 15:00:0011/03/183 - 2 15:00:0015:00
2018-03-04 15:00:0004/03/184 - 3 15:00:0015:00
2018-02-25 14:30:0025/02/183 - 0 14:30:0014:30
2018-02-18 10:45:0018/02/180 - 3 10:45:0010:45
2018-02-11 09:30:0011/02/182 - 4 09:30:009:30
2018-02-04 14:30:0004/02/183 - 1 14:30:0014:30
2018-01-28 14:30:0028/01/182 - 2 14:30:0014:30
2018-01-21 14:30:0021/01/183 - 0 14:30:0014:30
2018-01-13 14:30:0013/01/182 - 2 14:30:0014:30
2018-01-07 14:30:0007/01/180 - 1 14:30:0014:30
2017-12-17 14:30:0017/12/171 - 1 14:30:0014:30
2017-12-10 14:30:0010/12/172 - 1 14:30:0014:30
2017-12-03 14:30:0003/12/170 - 4 14:30:0014:30
2017-11-26 14:30:0026/11/174 - 2 14:30:0014:30
2017-11-19 14:30:0019/11/172 - 0 14:30:0014:30
2017-11-11 14:30:0011/11/173 - 1 14:30:0014:30
2017-11-05 14:30:0005/11/171 - 0 14:30:0014:30